This demonstration page uses our WeatherBlox Daily Observations layout. Learn more.

Left ArrowRight Arrow

Hourly Observations for September 29, 2017

Temp ( °F °C ) Dew Point ( °F °C ) Humidity (%) Winds ( mph kmh ) Pressure ( in mb ) Visibility ( mi km ) Precip ( " mm )
12:14 am 00:14 Clear 48 9 48 9 100 100 Calm 30.18 1022 10 16.0934 N/A
12:34 am 00:34 Clear 48 9 48 9 100 100 Calm 30.18 1022 10 16.0934 N/A
12:54 am 00:54 Clear 46 8 46 8 100 100 Calm 30.18 1022 10 16.0934 N/A
1:14 am 01:14 Clear 46 8 46 8 100 100 Calm 30.18 1022 10 16.0934 N/A
1:33 am 01:33 Clear 46 8 46 8 100 100 Calm 30.18 1022 10 16.0934 N/A
1:54 am 01:54 Clear 46 8 46 8 100 100 Calm 30.18 1022 7 11.26538 N/A
2:14 am 02:14 Clear 46 8 46 8 100 100 Calm 30.18 1022 10 16.0934 N/A
2:33 am 02:33 Clear 45 7 45 7 100 100 Calm 30.18 1022 10 16.0934 N/A
2:54 am 02:54 Clear 45 7 45 7 100 100 Calm 30.18 1022 10 16.0934 N/A
3:14 am 03:14 Clear 43 6 43 6 100 100 Calm 30.18 1022 7 11.26538 N/A
3:33 am 03:33 Clear 43 6 43 6 100 100 Calm 30.18 1022 2 3.21868 N/A
3:54 am 03:54 Clear 43 6 43 6 100 100 Calm 30.18 1022 10 16.0934 N/A
4:14 am 04:14 Clear 43 6 43 6 100 100 Calm 30.18 1022 10 16.0934 N/A
4:33 am 04:33 Clear 43 6 43 6 100 100 Calm 30.18 1022 10 16.0934 N/A
4:54 am 04:54 Clear 45 7 45 7 100 100 Calm 30.18 1022 10 16.0934 N/A
5:14 am 05:14 Clear 43 6 43 6 100 100 Calm 30.18 1022 10 16.0934 N/A
5:34 am 05:34 Clear 43 6 43 6 100 100 Calm 30.18 1022 10 16.0934 N/A
5:54 am 05:54 Clear 41 5 41 5 100 100 Calm 30.18 1022 10 16.0934 N/A
6:14 am 06:14 Clear 43 6 43 6 100 100 S 6 9 30.18 1022 10 16.0934 N/A
6:34 am 06:34 Clear 45 7 45 7 100 100 Calm 30.18 1022 10 16.0934 N/A
6:54 am 06:54 Clear 43 6 43 6 100 100 Calm 30.21 1023 10 16.0934 N/A
7:14 am 07:14 Clear 43 6 43 6 100 100 Calm 30.21 1023 10 16.0934 N/A
7:34 am 07:34 Clear 43 6 43 6 100 100 Calm 30.21 1023 10 16.0934 N/A
7:54 am 07:54 Partly Cloudy 45 7 45 7 100 100 S 3 6 30.21 1023 10 16.0934 N/A
8:14 am 08:14 Mostly Cloudy 46 8 46 8 100 100 Calm 30.21 1023 10 16.0934 N/A
8:34 am 08:34 Partly Cloudy 48 9 48 9 100 100 Calm 30.21 1023 10 16.0934 N/A
8:54 am 08:54 Sunny 54 12 54 12 100 100 Calm 30.21 1023 10 16.0934 N/A
9:14 am 09:14 Mostly Cloudy 55 13 54 12 94 94 Calm 30.21 1023 10 16.0934 N/A
9:34 am 09:34 Mostly Cloudy 57 14 55 13 94 94 Calm 30.18 1022 10 16.0934 N/A
9:54 am 09:54 Partly Cloudy 61 16 55 13 83 83 SW 5 7 30.18 1022 10 16.0934 N/A
10:14 am 10:14 Partly Cloudy 63 17 55 13 77 77 WSW 7 11 30.18 1022 10 16.0934 N/A
10:34 am 10:34 Partly Cloudy 64 18 54 12 68 68 WSW 7 11 30.18 1022 10 16.0934 N/A
10:54 am 10:54 Partly Cloudy 66 19 54 12 64 64 SW 8 13 30.18 1022 10 16.0934 N/A
11:14 am 11:14 Partly Cloudy 68 20 54 12 60 60 SW 7 11 30.18 1022 10 16.0934 N/A
11:34 am 11:34 Sunny 70 21 54 12 57 57 W 9 15 30.18 1022 10 16.0934 N/A
11:54 am 11:54 Sunny 72 22 54 12 53 53 W 10 17 30.18 1022 10 16.0934 N/A
12:14 pm 12:14 Sunny 72 22 54 12 53 53 W 14 22 30.18 1022 10 16.0934 N/A
12:34 pm 12:34 Sunny 73 23 55 13 53 53 WNW 10 17 30.15 1021 10 16.0934 N/A
12:53 pm 12:53 Partly Cloudy 75 24 55 13 50 50 NNW 6 9 30.15 1021 10 16.0934 N/A
1:14 pm 13:14 Mostly Cloudy 75 24 55 13 50 50 W 10 17 30.15 1021 10 16.0934 N/A
1:34 pm 13:34 Sunny 75 24 55 13 50 50 WNW 16 26 30.12 1020 10 16.0934 N/A
1:53 pm 13:53 Sunny 75 24 55 13 50 50 WNW 16 26 30.12 1020 10 16.0934 N/A
2:14 pm 14:14 Sunny 77 25 55 13 47 47 WNW 16 26 30.12 1020 10 16.0934 N/A
2:34 pm 14:34 Sunny 75 24 55 13 50 50 WNW 16 26 30.12 1020 10 16.0934 N/A
2:53 pm 14:53 Partly Cloudy 77 25 55 13 47 47 WNW 13 20 30.12 1020 10 16.0934 N/A
3:14 pm 15:14 Partly Cloudy 73 23 54 12 50 50 NW 14 22 30.12 1020 10 16.0934 N/A
3:34 pm 15:34 Partly Cloudy 75 24 54 12 47 47 NW 15 24 30.12 1020 10 16.0934 N/A
3:53 pm 15:53 Partly Cloudy 77 25 54 12 44 44 NW 14 22 30.12 1020 10 16.0934 N/A
4:14 pm 16:14 Mostly Cloudy 77 25 54 12 44 44 NW 15 24 30.12 1020 10 16.0934 N/A
4:34 pm 16:34 Partly Cloudy 77 25 54 12 44 44 N 16 26 30.12 1020 10 16.0934 N/A
4:53 pm 16:53 Partly Cloudy 75 24 52 11 44 44 NNW 16 26 30.12 1020 10 16.0934 N/A
5:14 pm 17:14 Sunny 73 23 52 11 47 47 NW 8 13 30.12 1020 10 16.0934 N/A
5:34 pm 17:34 Sunny 75 24 50 10 41 41 NNW 18 30 30.12 1020 10 16.0934 N/A
5:53 pm 17:53 Sunny 73 23 48 9 41 41 NNW 15 24 30.12 1020 10 16.0934 N/A
6:14 pm 18:14 Sunny 72 22 48 9 44 44 N 12 19 30.15 1021 10 16.0934 N/A
6:34 pm 18:34 Sunny 70 21 48 9 46 46 N 13 20 30.18 1022 10 16.0934 N/A
6:53 pm 18:53 Sunny 70 21 48 9 46 46 N 13 20 30.18 1022 10 16.0934 N/A
7:14 pm 19:14 Sunny 66 19 48 9 52 52 N 17 28 30.18 1022 10 16.0934 N/A
7:34 pm 19:34 Clear 64 18 46 8 52 52 N 12 19 30.18 1022 10 16.0934 N/A
7:53 pm 19:53 Clear 63 17 46 8 56 56 N 13 20 30.18 1022 10 16.0934 N/A
8:14 pm 20:14 Clear 63 17 46 8 56 56 N 10 17 30.18 1022 10 16.0934 N/A
8:34 pm 20:34 Clear 61 16 46 8 59 59 N 8 13 30.21 1023 10 16.0934 N/A
8:53 pm 20:53 Clear 61 16 46 8 59 59 N 9 15 30.21 1023 10 16.0934 N/A
9:14 pm 21:14 Clear 59 15 46 8 63 63 N 8 13 30.21 1023 10 16.0934 N/A
9:34 pm 21:34 Clear 59 15 48 9 68 68 N 10 17 30.21 1023 10 16.0934 N/A
9:54 pm 21:54 Clear 57 14 48 9 72 72 N 8 13 30.24 1024 10 16.0934 N/A
10:14 pm 22:14 Clear 55 13 48 9 77 77 N 6 9 30.27 1025 10 16.0934 N/A
10:34 pm 22:34 Clear 55 13 48 9 77 77 N 6 9 30.27 1025 10 16.0934 N/A
10:54 pm 22:54 Clear 54 12 48 9 82 82 N 6 9 30.27 1025 10 16.0934 N/A
11:14 pm 23:14 Clear 54 12 48 9 82 82 N 6 9 30.27 1025 10 16.0934 N/A
11:34 pm 23:34 Clear 52 11 48 9 88 88 N 7 11 30.27 1025 10 16.0934 N/A
11:54 pm 23:54 Clear 52 11 48 9 88 88 N 7 11 30.3 1026 10 16.0934 N/A

Powered by AerisWeather